DW2363 Weather Reports


time (UTC)temp
C
wind
direction
speed
KPH
gust
KPH
rain 1hr
cm
rain 24hr
cm
rain mn
cm
humidity
%
barometer
mb
20260906225644 19 44 11.3 19.3 0.25 2.21 2.21 97 1014.9
20260906225145 19 49 9.7 17.7 0.25 2.18 2.18 97 1015.1
20260906224644 19 40 9.7 17.7 0.28 2.16 2.16 97 1015.1
20260906224144 19 53 11.3 16.1 0.28 2.13 2.13 97 1015.6
20260906223645 19 87 12.9 16.1 0.30 2.13 2.13 97 1015.6
20260906223145 19 93 11.3 16.1 0.30 2.11 2.11 97 1015.4
20260906222644 19 61 11.3 16.1 0.33 2.08 2.08 97 1015.0
20260906222145 19 96 9.7 17.7 0.36 2.08 2.08 97 1015.7
20260906221650 19 5 9.7 19.3 0.36 2.06 2.06 97 1015.6
20260906221645 19 90 8.0 17.7 0.33 2.06 2.06 97 1015.8
20260906220644 19 24 12.9 19.3 0.33 2.03 2.03 97 1015.4
20260906220144 19 23 12.9 19.3 0.33 2.01 2.01 97 1015.6
20260906215645 20 9 14.5 19.3 0.30 1.96 1.96 97 1015.3
20260906215148 20 13 14.5 19.3 0.30 1.93 1.93 97 1015.6
20260906215144 20 22 14.5 19.3 0.28 1.88 1.91 97 1015.6
20260906214148 20 22 14.5 20.9 0.23 1.83 1.83 97 1015.8
20260906214143 20 22 14.5 19.3 0.25 1.85 1.85 97 1015.8
20260906213143 20 40 12.9 20.9 0.20 1.80 1.80 97 1015.5
20260906212642 20 75 11.3 16.1 0.15 1.75 1.78 98 1016.2
20260906212142 20 108 12.9 19.3 0.13 1.73 1.75 98 1016.3
20260906211643 20 80 14.5 19.3 0.13 1.73 1.73 98 1015.8
20260906211142 20 67 16.1 20.9 0.10 1.70 1.70 98 1015.4
20260906210648 19 74 16.1 20.9 0.08 1.68 1.68 98 1015.6
20260906210643 20 65 14.5 20.9 0.10 1.70 1.70 98 1015.5
20260906205642 19 67 16.1 20.9 0.05 1.65 1.65 98 1015.4
20260906205142 19 48 17.7 22.5 0.03 1.63 1.63 98 1015.1
20260906204643 19 49 17.7 22.5 0.00 1.60 1.60 97 1015.3
20260906204148 19 43 17.7 24.1 0.00 1.60 1.60 98 1015.0
20260906204142 19 63 17.7 24.1 0.00 1.60 1.60 98 1015.1
20260906203142 19 49 17.7 24.1 0.00 1.60 1.60 97 1015.1
20260906202641 19 43 19.3 24.1 0.00 1.60 1.60 97 1015.1
20260906202140 19 42 19.3 24.1 0.00 1.60 1.60 97 1014.9
20260906201640 19 40 17.7 24.1 0.00 1.60 1.60 98 1015.0
20260906201140 19 55 16.1 20.9 0.00 1.60 1.60 98 1015.4
20260906200640 19 55 17.7 19.3 0.00 1.60 1.60 98 1015.5
20260906200140 19 47 17.7 19.3 0.00 1.60 1.60 98 1015.6
20260906195640 18 40 16.1 19.3 0.00 1.60 1.60 98 1015.5
20260906195140 18 32 16.1 19.3 0.00 1.60 1.60 97 1015.8
20260906194640 18 21 14.5 19.3 0.03 1.60 1.60 97 1015.8
20260906194146 18 15 14.5 24.1 0.05 1.60 1.60 97 1015.9
20260906194140 18 14 14.5 24.1 0.05 1.60 1.60 98 1015.8
20260906193747 18 26 19.3 29.0 0.05 1.60 1.60 97 1016.3
20260906192640 18 355 24.1 30.6 0.05 1.60 1.60 97 1016.0
20260906192140 18 345 24.1 30.6 0.08 1.60 1.60 97 1015.4
20260906191638 18 355 24.1 30.6 0.10 1.60 1.60 97 1015.9
20260906191138 18 338 27.4 30.6 0.13 1.60 1.60 97 1015.9
20260906190638 18 349 27.4 32.2 0.15 1.60 1.60 97 1015.8
20260906190136 18 344 27.4 32.2 0.15 1.60 1.60 97 1015.8
20260906185642 18 11 19.3 27.4 0.15 1.60 1.60 97 1016.0
20260906185636 18 355 25.7 30.6 0.15 1.60 1.60 97 1015.8
20260906184638 18 355 14.5 24.1 0.15 1.57 1.57 97 1016.4
20260906184634 18 337 11.3 16.1 0.15 1.55 1.55 97 1017.0
20260906184246 18 342 9.7 14.5 0.20 1.55 1.55 97 1016.9
20260906183134 18 338 11.3 14.5 0.23 1.55 1.55 96 1016.9
20260906182634 18 0 12.9 16.1 0.25 1.55 1.55 96 1016.8
20260906182134 18 355 14.5 16.1 0.23 1.52 1.52 96 1016.8
20260906181634 18 0 14.5 16.1 0.23 1.50 1.50 96 1016.8
20260906181134 18 5 11.3 16.1 0.23 1.47 1.47 96 1016.8
20260906180634 18 0 8.0 14.5 0.23 1.45 1.47 96 1016.9
20260906180134 18 0 3.2 12.9 0.25 1.45 1.45 96 1016.9
20260906175633 18 5 4.8 12.9 0.25 1.45 1.45 96 1017.0
20260906175132 18 5 11.3 17.7 0.28 1.45 1.45 96 1016.8
20260906174632 18 0 14.5 19.3 0.25 1.42 1.42 96 1016.7
20260906174132 18 355 9.7 19.3 0.28 1.40 1.40 96 1016.6
20260906173632 18 28 6.4 12.9 0.28 1.35 1.37 95 1016.8
20260906173132 18 36 4.8 9.7 0.33 1.32 1.32 95 1016.9
20260906172632 18 308 3.2 8.0 0.36 1.30 1.30 96 1017.0
20260906172132 18 215 1.6 8.0 0.38 1.30 1.30 96 1017.0
20260906171632 18 196 0.0 8.0 0.41 1.27 1.27 96 1016.9
20260906171132 18 196 0.0 8.0 0.41 1.24 1.24 95 1016.7
20260906170631 18 196 3.2 9.7 0.41 1.22 1.22 95 1016.8
20260906170129 18 196 8.0 11.3 0.41 1.19 1.22 95 1016.9
20260906165631 18 200 4.8 12.9 0.41 1.19 1.19 95 1016.7
20260906165130 18 165 3.2 12.9 0.38 1.17 1.19 95 1016.6
20260906164629 18 9 6.4 12.9 0.38 1.17 1.17 95 1016.0
20260906164129 18 46 6.4 12.9 0.36 1.12 1.12 95 1015.9
20260906163630 18 107 8.0 14.5 0.30 1.07 1.07 95 1015.9
20260906163133 18 136 11.3 22.5 0.23 0.99 0.99 94 1016.0
20260906163129 18 143 14.5 22.5 0.18 0.94 0.97 94 1016.2
20260906162131 18 170 16.1 22.5 0.10 0.86 0.89 94 1016.3
20260906162127 18 162 16.1 22.5 0.15 0.91 0.91 94 1016.4
20260906161127 18 158 14.5 24.1 0.08 0.84 0.84 93 1016.3
20260906160628 19 158 14.5 24.1 0.05 0.81 0.81 93 1016.2
20260906160128 19 159 16.1 24.1 0.03 0.79 0.79 92 1016.2
20260906155627 19 146 14.5 24.1 0.03 0.79 0.79 92 1016.0
20260906155126 19 147 16.1 24.1 0.03 0.79 0.79 92 1015.8
20260906154625 19 151 17.7 24.1 0.03 0.79 0.79 92 1015.8
20260906154124 19 162 16.1 22.5 0.03 0.76 0.76 92 1015.8
20260906153623 20 170 16.1 19.3 0.03 0.76 0.76 92 1015.7
20260906153122 20 169 12.9 19.3 0.03 0.76 0.76 92 1015.7
20260906152622 20 161 12.9 19.3 0.03 0.76 0.76 92 1015.5
20260906152119 20 157 11.3 19.3 0.03 0.76 0.76 93 1015.3
20260906151620 20 148 8.0 14.5 0.05 0.76 0.76 93 1015.2
20260906151120 20 155 11.3 17.7 0.08 0.76 0.76 92 1015.2
20260906150625 20 161 11.3 16.1 0.10 0.76 0.76 92 1015.0
20260906150619 20 162 12.9 17.7 0.10 0.76 0.76 92 1015.1
20260906145620 20 160 11.3 16.1 0.13 0.76 0.76 92 1015.0
20260906145120 20 148 11.3 14.5 0.13 0.76 0.76 91 1015.1
20260906144619 20 144 6.4 14.5 0.15 0.76 0.76 91 1014.9
20260906144119 20 120 3.2 11.3 0.13 0.74 0.74 91 1015.0
20260906143620 20 32 4.8 8.0 0.13 0.74 0.74 91 1014.9
20260906143119 20 32 8.0 9.7 0.13 0.74 0.74 91 1014.9
20260906142619 19 32 8.0 12.9 0.18 0.74 0.74 91 1014.9
20260906142119 19 24 9.7 12.9 0.20 0.74 0.74 92 1014.8
20260906141619 18 11 9.7 19.3 0.25 0.71 0.71 92 1014.6
20260906141120 18 5 14.5 19.3 0.41 0.69 0.69 93 1014.6
20260906140619 17 0 16.1 19.3 0.56 0.66 0.66 92 1014.5
20260906140119 16 355 16.1 19.3 0.61 0.66 0.66 90 1014.5
20260906135619 16 0 16.1 19.3 0.58 0.64 0.66 86 1014.6
20260906135119 17 345 14.5 17.7 0.61 0.64 0.64 85 1014.8
20260906134619 18 350 12.9 17.7 0.61 0.61 0.61 87 1014.6
20260906134119 18 347 6.4 16.1 0.61 0.61 0.61 87 1014.8
20260906133619 19 15 4.8 16.1 0.61 0.61 0.61 90 1015.0
20260906133119 18 9 4.8 16.1 0.61 0.61 0.61 89 1014.9
20260906132626 17 242 16.1 22.5 0.46 0.46 0.46 75 1014.8
20260906132618 18 24 3.2 16.1 0.56 0.56 0.56 90 1014.9
20260906132119 18 250 9.7 19.3 0.53 0.53 0.53 89 1014.6
20260906131119 18 226 16.1 24.1 0.28 0.28 0.28 74 1015.1
20260906130619 20 206 12.9 24.1 0.10 0.10 0.10 74 1014.9
20260906130118 18 199 11.3 22.5 0.05 0.05 0.05 57 1014.5
20260906125619 17 312 8.0 22.5 0.05 0.05 0.05 58 1014.3
20260906125124 16 134 19.3 32.2 0.00 0.00 0.00 82 1014.8
20260906125119 16 129 9.7 32.2 0.03 0.03 0.03 70 1014.4
20260906124119 17 142 25.7 45.1 0.00 0.00 0.00 82 1014.9
20260906123619 18 144 30.6 46.7 0.00 0.00 0.00 72 1015.0
20260906123125 22 175 11.3 22.5 0.00 0.00 0.00 35 1014.6
20260906123119 21 165 22.5 46.7 0.00 0.00 0.00 50 1015.1
20260906122727 22 146 8.0 14.5 0.00 0.00 0.00 33 1014.3
20260906121618 22 157 8.0 12.9 0.00 0.00 0.00 31 1014.3
20260906121118 22 148 9.7 14.5 0.00 0.00 0.00 31 1014.1
20260906120617 23 164 9.7 14.5 0.00 0.00 0.00 31 1014.2
20260906120118 23 165 8.0 14.5 0.00 0.00 0.00 29 1014.1
20260906115617 23 157 8.0 11.3 0.00 0.00 0.00 29 1014.1
20260906115117 23 161 6.4 11.3 0.00 0.00 0.00 26 1014.1
20260906114617 23 138 6.4 11.3 0.00 0.00 0.00 28 1014.0
20260906114117 23 128 4.8 9.7 0.00 0.00 0.00 28 1014.0
20260906113617 23 119 6.4 11.3 0.00 0.00 0.00 31 1014.1
20260906113117 23 100 6.4 11.3 0.00 0.00 0.00 33 1014.1
20260906112615 23 102 6.4 9.7 0.00 0.00 0.00 33 1014.1
20260906112115 23 109 6.4 17.7 0.00 0.00 0.00 33 1014.1
20260906111615 23 136 6.4 17.7 0.00 0.00 0.00 33 1014.1
20260906111115 23 138 9.7 19.3 0.00 0.00 0.00 33 1014.2
20260906110619 23 146 6.4 14.5 0.00 0.00 0.00 31 1014.2
20260906110615 23 142 11.3 19.3 0.00 0.00 0.00 32 1014.3
20260906105615 23 119 4.8 6.4 0.00 0.00 0.00 27 1014.0
20260906105115 23 132 3.2 6.4 0.00 0.00 0.00 25 1014.0
20260906104615 23 144 1.6 4.8 0.00 0.00 0.00 27 1014.1
20260906104114 23 144 4.8 11.3 0.00 0.00 0.00 32 1014.1
20260906103613 23 141 6.4 11.3 0.00 0.00 0.00 33 1014.1
20260906103113 23 141 8.0 12.9 0.00 0.00 0.00 33 1014.1
20260906102613 23 136 9.7 12.9 0.00 0.00 0.00 33 1014.2
20260906102114 23 134 9.7 12.9 0.00 0.00 0.00 33 1014.2
20260906101613 23 133 6.4 12.9 0.00 0.00 0.00 33 1014.2
20260906101113 23 122 6.4 8.0 0.00 0.00 0.00 32 1014.1
20260906100617 23 131 8.0 11.3 0.00 0.00 0.00 34 1014.1
20260906100613 23 125 6.4 8.0 0.00 0.00 0.00 33 1014.1
20260906095616 23 132 9.7 11.3 0.00 0.00 0.00 33 1014.2
20260906095612 23 136 9.7 11.3 0.00 0.00 0.00 33 1014.2
20260906095218 23 135 9.7 11.3 0.00 0.00 0.00 32 1014.3
20260906094111 23 125 8.0 11.3 0.00 0.00 0.00 32 1014.3
20260906093610 23 115 9.7 11.3 0.00 0.00 0.00 32 1014.3
20260906093110 23 111 8.0 11.3 0.00 0.00 0.00 31 1014.3
20260906092613 23 104 6.4 9.7 0.00 0.00 0.00 30 1014.1
20260906092609 23 107 8.0 9.7 0.00 0.00 0.00 31 1014.2
20260906091609 23 94 6.4 9.7 0.00 0.00 0.00 31 1014.1
20260906091111 23 91 6.4 9.7 0.00 0.00 0.00 30 1014.1
20260906091107 23 94 8.0 9.7 0.00 0.00 0.00 30 1014.1
20260906090713 23 90 6.4 9.7 0.00 0.00 0.00 30 1014.2
20260906085611 23 90 6.4 9.7 0.00 0.00 0.00 29 1014.3
20260906085607 23 85 6.4 9.7 0.00 0.00 0.00 30 1014.2
20260906084609 23 86 4.8 9.7 0.00 0.00 0.00 29 1014.3
20260906084605 23 85 4.8 6.4 0.00 0.00 0.00 29 1014.4
20260906084211 23 104 6.4 9.7 0.00 0.00 0.00 29 1014.4
20260906083712 23 98 6.4 11.3 0.00 0.00 0.00 28 1014.4
20260906083104 23 109 8.0 11.3 0.00 0.00 0.00 28 1014.4
20260906082104 23 84 6.4 9.7 0.00 0.00 0.00 27 1014.4
20260906081604 23 88 4.8 9.7 0.00 0.00 0.00 28 1014.4
20260906081104 23 86 4.8 6.4 0.00 0.00 0.00 27 1014.4
20260906080605 23 106 4.8 6.4 0.00 0.00 0.00 27 1014.4
20260906080105 23 115 3.2 6.4 0.00 0.00 0.00 27 1014.5
20260906075605 23 132 3.2 3.2 0.00 0.00 0.00 29 1014.5
20260906075104 23 132 1.6 3.2 0.00 0.00 0.00 30 1014.5
20260906074604 23 132 1.6 4.8 0.00 0.00 0.00 31 1014.5
20260906074104 23 132 3.2 4.8 0.00 0.00 0.00 31 1014.5
20260906073607 23 133 3.2 4.8 0.00 0.00 0.00 27 1014.5
20260906073603 23 132 4.8 4.8 0.00 0.00 0.00 29 1014.5
20260906072602 23 138 1.6 4.8 0.00 0.00 0.00 27 1014.5
20260906072102 23 192 0.0 3.2 0.00 0.00 0.00 27 1014.4
20260906071603 23 195 0.0 3.2 0.00 0.00 0.00 28 1014.4
20260906071102 23 198 0.0 0.0 0.00 0.00 0.00 28 1014.4
20260906070603 23 198 0.0 0.0 0.00 0.00 0.00 28 1014.4
20260906065602 23 198 0.0 0.0 0.00 0.00 0.00 28 1014.4
20260906065102 23 198 0.0 1.6 0.00 0.00 0.00 31 1014.5
20260906064602 23 198 0.0 1.6 0.00 0.00 0.00 33 1014.5
20260906064100 23 198 0.0 3.2 0.00 0.00 0.00 33 1014.5
20260906063600 23 198 1.6 3.2 0.00 0.00 0.00 33 1014.4
20260906063100 23 198 3.2 3.2 0.00 0.00 0.00 34 1014.5
20260906062606 23 198 3.2 4.8 0.00 0.00 0.00 34 1014.5
20260906062600 23 198 3.2 4.8 0.00 0.00 0.00 34 1014.5
20260906061600 23 198 1.6 4.8 0.00 0.00 0.00 34 1014.5
20260906061105 23 198 3.2 4.8 0.00 0.00 0.00 33 1014.6
20260906061059 23 198 3.2 4.8 0.00 0.00 0.00 34 1014.5
20260906060707 23 198 3.2 3.2 0.00 0.00 0.00 33 1014.5
20260906055559 23 198 3.2 3.2 0.00 0.00 0.00 32 1014.5
20260906055058 23 198 3.2 4.8 0.00 0.00 0.00 32 1014.5
20260906054558 23 198 3.2 4.8 0.00 0.00 0.00 30 1014.5
20260906054058 23 198 3.2 4.8 0.00 0.00 0.00 31 1014.6
20260906053605 23 216 0.0 4.8 0.00 0.00 0.00 32 1014.8
20260906053558 23 200 1.6 4.8 0.00 0.00 0.00 31 1014.6
20260906052559 23 233 0.0 3.2 0.00 0.00 0.00 33 1014.8
20260906052058 23 233 0.0 3.2 0.00 0.00 0.00 33 1014.8
20260906051557 23 233 1.6 3.2 0.00 0.00 0.00 33 1014.8
20260906051058 23 233 1.6 3.2 0.00 0.00 0.00 33 1014.8
20260906050558 23 233 0.0 3.2 0.00 0.00 0.00 32 1014.9
20260906050058 23 233 1.6 3.2 0.00 0.00 0.00 33 1014.8
20260906045558 23 233 3.2 4.8 0.00 0.00 0.00 33 1014.9
20260906045058 23 233 3.2 4.8 0.00 0.00 0.00 33 1014.8
20260906044604 23 232 4.8 6.4 0.00 0.00 0.00 33 1014.9
20260906044558 23 232 3.2 4.8 0.00 0.00 0.00 33 1014.8
20260906043558 23 232 4.8 6.4 0.00 0.00 0.00 33 1015.0
20260906043058 23 232 4.8 6.4 0.00 0.00 0.00 33 1014.8
20260906042558 23 232 4.8 8.0 0.00 0.00 0.00 31 1014.9
20260906042103 23 209 6.4 8.0 0.00 0.00 0.00 28 1014.9
20260906042057 23 231 6.4 8.0 0.00 0.00 0.00 29 1014.9
20260906041058 23 191 6.4 8.0 0.00 0.00 0.00 28 1014.8
20260906040556 23 187 6.4 8.0 0.00 0.00 0.00 28 1014.8
20260906040055 23 192 6.4 8.0 0.00 0.00 0.00 29 1014.8
20260906035555 23 207 6.4 8.0 0.00 0.00 0.00 29 1014.6
20260906035055 23 207 4.8 8.0 0.00 0.00 0.00 28 1014.6
20260906034558 23 207 4.8 8.0 0.00 0.00 0.00 31 1014.5
20260906034554 23 207 4.8 8.0 0.00 0.00 0.00 28 1014.4
20260906033554 23 207 4.8 8.0 0.00 0.00 0.00 27 1014.4
20260906033053 23 207 4.8 8.0 0.00 0.00 0.00 26 1014.4
20260906032553 23 207 4.8 8.0 0.00 0.00 0.00 26 1014.3
20260906032053 23 196 4.8 8.0 0.00 0.00 0.00 26 1014.2
20260906031554 23 198 4.8 8.0 0.00 0.00 0.00 26 1014.2
20260906031054 23 194 4.8 6.4 0.00 0.00 0.00 27 1014.1
20260906030554 23 187 4.8 8.0 0.00 0.00 0.00 27 1014.0
20260906030054 23 184 4.8 8.0 0.00 0.00 0.00 31 1014.1
20260906025554 23 207 4.8 8.0 0.00 0.00 0.00 31 1014.1
20260906025058 23 218 6.4 8.0 0.00 0.00 0.00 31 1014.0
20260906025054 23 221 4.8 8.0 0.00 0.00 0.00 31 1014.0
20260906024054 23 223 6.4 8.0 0.00 0.00 0.00 28 1014.0
20260906023557 23 221 6.4 9.7 0.00 0.00 0.00 28 1014.1
20260906023553 23 217 6.4 8.0 0.00 0.00 0.00 29 1014.0
20260906022554 23 224 6.4 9.7 0.00 0.00 0.00 30 1014.1
20260906022053 23 225 6.4 8.0 0.00 0.00 0.00 29 1014.0
20260906021553 24 225 8.0 12.9 0.00 0.00 0.00 28 1014.1
20260906021053 24 213 9.7 14.5 0.00 0.00 0.00 31 1014.1
20260906020559 24 211 8.0 11.3 0.00 0.00 0.00 30 1014.2
20260906020553 24 195 9.7 14.5 0.00 0.00 0.00 30 1014.1
20260906015554 24 194 8.0 11.3 0.00 0.00 0.00 31 1014.1
20260906015058 24 196 8.0 11.3 0.00 0.00 0.00 33 1014.1
20260906015054 24 213 8.0 9.7 0.00 0.00 0.00 31 1014.1
20260906014700 24 193 8.0 12.9 0.00 0.00 0.00 35 1014.0
20260906013553 25 196 8.0 12.9 0.00 0.00 0.00 37 1014.1
20260906013053 25 191 8.0 12.9 0.00 0.00 0.00 32 1014.1
20260906012553 25 182 6.4 11.3 0.00 0.00 0.00 34 1014.1
20260906012053 25 221 8.0 12.9 0.00 0.00 0.00 31 1014.1
20260906011555 25 204 8.0 12.9 0.00 0.00 0.00 38 1014.1
20260906011551 25 232 8.0 12.9 0.00 0.00 0.00 38 1014.2
20260906011158 25 163 6.4 12.9 0.00 0.00 0.00 36 1014.2
20260906010657 25 186 8.0 14.5 0.00 0.00 0.00 38 1014.2
20260906005551 25 192 8.0 14.5 0.00 0.00 0.00 34 1014.2
20260906005051 25 200 8.0 12.9 0.00 0.00 0.00 31 1014.2
20260906004551 25 211 8.0 14.5 0.00 0.00 0.00 32 1014.2
20260906004049 25 175 9.7 14.5 0.00 0.00 0.00 35 1014.1
20260906003549 25 165 9.7 14.5 0.00 0.00 0.00 34 1014.1
20260906003049 25 161 8.0 16.1 0.00 0.00 0.00 35 1014.1
20260906002549 25 155 8.0 16.1 0.00 0.00 0.00 33 1014.0
20260906002049 25 171 9.7 16.1 0.00 0.00 0.00 33 1014.0
20260906001547 25 163 9.7 16.1 0.00 0.00 0.00 33 1014.1
20260906001051 25 170 6.4 12.9 0.00 0.00 0.00 32 1014.2
20260906001047 25 180 8.0 14.5 0.00 0.00 0.00 33 1014.1
20260906000047 25 192 8.0 14.5 0.00 0.00 0.00 33 1014.2
20260905235552 25 159 9.7 14.5 0.00 0.00 0.00 38 1014.2
20260905235547 24 171 8.0 14.5 0.00 0.00 0.00 33 1014.1
20260905234547 25 159 9.7 16.1 0.00 0.00 0.00 37 1014.1
20260905234047 25 166 11.3 17.7 0.00 0.00 0.00 34 1014.2
20260905233546 25 165 11.3 17.7 0.00 0.00 0.00 28 1014.1
20260905233046 25 180 12.9 17.7 0.00 0.00 0.00 27 1014.1
20260905232545 25 178 12.9 17.7 0.00 0.00 0.00 27 1014.1
20260905232045 25 176 11.3 17.7 0.00 0.00 0.00 30 1014.1
20260905231545 25 160 11.3 16.1 0.00 0.00 0.00 28 1014.2
20260905231045 25 144 11.3 16.1 0.00 0.00 0.00 31 1014.3
20260905230545 25 155 11.3 17.7 0.00 0.00 0.00 33 1014.3